Current Weather Conditions: station ENFB

sailwx.info

See reports from other nearby stations

no recent reports received from weather station ID ENFB

Tides Pressure Air temp Water temp Dewpoint Dewpoint depression Visibility Wind speed Wind direction Waves Ship positions
date/time (UTC)wind fromknots sea level pressurealtimeterstation pressurevisibilityair tempwater tempwave heightnotes
2017-Feb-26 20:50 150 31 4.9 7.0 Light rain showers.
2017-Feb-26 20:20 150 32 5.4 7.0 Light rain showers.
2017-Feb-26 19:50 160 33 5.4 7.0 Light rain showers.
2017-Feb-26 19:20 150 33 5.4 7.0
2017-Feb-26 18:50 150 33 5.4 7.0
2017-Feb-26 18:20 150 34 5.4 7.0
2017-Feb-26 17:50 150 33 5.4 7.0
2017-Feb-26 17:20 150 33 5.4 6.0
2017-Feb-26 16:50 160 34 5.4 7.0
2017-Feb-26 16:20 160 34 5.4 7.0 Light rain showers.
2017-Feb-26 15:50 170 34 5.4 8.0
2017-Feb-26 15:20 150 35 5.4 7.0 Light rain showers.
2017-Feb-26 14:50 140 31 5.4 9.0
2017-Feb-26 14:20 150 29 5.4 8.0
2017-Feb-26 13:50 160 29 5.4 7.0 Light rain showers.
2017-Feb-26 13:20 160 29 5.4 8.0
2017-Feb-26 12:50 160 29 5.4 8.0
2017-Feb-26 12:20 150 22 5.4 8.0
2017-Feb-26 11:50 150 19 5.4 7.0
2017-Feb-26 11:20 160 27 5.4 7.0 Light rain.
2017-Feb-26 10:50 170 24 5.4 8.0
2017-Feb-26 10:20 170 24 5.4 7.0
2017-Feb-26 09:50 170 20 5.4 7.0
2017-Feb-26 09:20 160 21 5.4 8.0
2017-Feb-26 08:50 160 17 5.4 7.0
2017-Feb-26 08:20 170 19 5.4 8.0
2017-Feb-26 07:50 170 14 5.4 8.0
2017-Feb-26 07:20 180 13 5.4 7.0
2017-Feb-26 06:50 190 13 5.4 7.0
2017-Feb-26 06:20 190 12 5.4 7.0
2017-Feb-26 05:50 210 8 5.4 6.0
2017-Feb-26 05:20 220 8 5.4 6.0
2017-Feb-26 04:50 230 11 5.4 7.0
2017-Feb-26 04:20 250 8 5.4 7.0
2017-Feb-26 03:50 250 9 5.4 7.0
2017-Feb-26 03:20 260 11 5.4 6.0
2017-Feb-26 02:50 260 11 5.4 6.0
2017-Feb-26 02:20 270 12 5.4 6.0
2017-Feb-26 01:50 260 15 5.4 6.0
2017-Feb-26 01:20 260 12 5.4 6.0
2017-Feb-26 00:50 280 12 5.4 6.0
2017-Feb-26 00:20 290 19 5.4 6.0
2017-Feb-25 23:50 260 17 5.4 7.0
2017-Feb-25 23:20 260 19 5.4 7.0
2017-Feb-25 22:50 270 21 5.4 7.0
2017-Feb-25 22:20 270 17 5.4 7.0
2017-Feb-25 21:50 280 17 5.4 7.0
2017-Feb-25 21:20 280 20 5.4 7.0
2017-Feb-25 20:50 280 22 5.4 7.0
2017-Feb-25 20:20 280 20 5.4 7.0
2017-Feb-25 19:50 280 27 5.4 7.0
2017-Feb-25 19:20 280 26 5.4 7.0
2017-Feb-25 18:50 270 21 5.4 7.0
2017-Feb-25 18:20 280 26 5.4 7.0
2017-Feb-25 17:50 280 27 5.4 7.0
2017-Feb-25 17:20 270 28 5.4 7.0 Light rain.
2017-Feb-25 16:50 280 25 5.4 8.0
2017-Feb-25 16:20 290 22 5.4 8.0
2017-Feb-25 15:50 290 26 5.4 8.0
2017-Feb-25 15:20 290 27 5.4 8.0
2017-Feb-25 14:50 280 27 5.4 8.0
2017-Feb-25 14:20 290 31 5.4 8.0
2017-Feb-25 13:50 270 27 5.4 8.0
2017-Feb-25 13:20 230 32 2.4 8.0 Light rain showers. Mist.
2017-Feb-25 12:50 210 35 1.6 8.0 Light rain showers. Mist.
2017-Feb-25 12:20 200 35 2.4 8.0 Light rain showers. Mist.
2017-Feb-25 11:50 190 38 1.8 8.0 Light rain. Mist.
2017-Feb-25 11:20 180 36 1.3 8.0 Rain. Mist.
2017-Feb-25 10:50 180 39 1.1 8.0 Rain. Mist.
2017-Feb-25 10:20 170 42 1.6 7.0 Light rain. Mist.
2017-Feb-25 09:50 170 45 1.2 7.0 Light rain. Mist.
2017-Feb-25 09:20 170 48 1.9 7.0 Light rain. Mist.
2017-Feb-25 08:50 160 51 2.5 6.0 Light rain. Mist.
2017-Feb-25 08:20 160 53 3.8 6.0 Light rain.
2017-Feb-25 07:50 160 53 2.7 5.0 Light rain.
2017-Feb-25 07:20 160 58 4.3 5.0 Light rain.
2017-Feb-25 06:50 160 56 2.4 5.0 Light rain. Mist.
2017-Feb-25 06:20 150 55 2.4 5.0 Light rain. Mist.
2017-Feb-25 05:50 150 53 2.7 4.0 Light rain.
2017-Feb-25 05:20 150 54 2.7 4.0 Light rain.
2017-Feb-25 04:50 140 48 3.8 4.0 Light rain.
2017-Feb-25 04:20 150 47 3.8 4.0 Light rain.
2017-Feb-25 03:50 150 47 3.2 3.0 Light rain showers.
2017-Feb-25 03:20 150 44 4.9 4.0 Light rain showers.
2017-Feb-25 02:50 160 42 5.4 4.0
2017-Feb-25 02:20 150 39 5.4 5.0
2017-Feb-25 01:50 160 36 5.4 4.0
2017-Feb-25 01:20 150 35 5.4 4.0
2017-Feb-25 00:50 160 34 5.4 4.0
2017-Feb-25 00:20 160 32 5.4 4.0
2017-Feb-24 23:50 150 28 5.4 4.0
2017-Feb-24 23:20 150 27 5.4 4.0
2017-Feb-24 22:50 150 25 5.4 4.0
2017-Feb-24 22:20 150 21 5.4 4.0
2017-Feb-24 21:50 150 20 5.4 4.0
2017-Feb-24 21:20 150 19 5.4 4.0